Terminal Aerodrome Forecast
Issued by NWS Mobile, AL

Home | Current Version | Previous Version | Text Only | Print | Product List | Glossary On
Versions: 1 2 3 4 5 6 7 8 9 10 11 12 13 14 15 16 17 18 19 20 21 22 23 24 25 26 27 28 29 30 31 32 33 34 35 36 37 38
000
FTUS44 KMOB 052320
TAFPNS
TAF
KPNS 052320Z 0600/0624 36009KT 3SM RA BR SCT008 BKN020
      TEMPO 0600/0604 2SM TSRA BKN012CB
     FM060900 22012KT 4SM -TSRA BR BKN009 OVC020CB
     FM061200 27013KT P6SM SCT010 OVC020=

USA.gov is the U.S. government's official web portal to all federal, state and local government web resources and services.